Probability
1 1 1 1 0 0 0 0 0 0 0 0 0 0 0 0 0 0 0 0 0 0 0 0 0 0 0 0 0 0 0 0 0 0 0 0 0 0 0 0 0 0 0
1 0 0 0 0 0 0 0 0 0 0 0 0 0 0 0 0 0 0 0 0 0 0 0 0 0 0 0 0 0 0 0 0 0 0 0 0 0 0 0 0 0 0
0 0 0 0 0 0 0 0 0 0 0 0 0 0 0 0 0 0 0 0 0 0 0 0 0 0 0 0 0 0 0 0 0 0 0 0 0 0 0 0 0 0 0
0 0 0 0 0 0 0 0 0 0 0 0 0 0 0 0 0 0 0 0 0 0 0 0 0 0 0 0 0 0 0 0 0 0 0 0 0 1 1 1 0 0 0
0 0 0 0 0 0 0 0 0 0 0 0 0 0 0 0 0 0 0 0 0 0 0 0 0 0 0 0 0 0 0 0 1 1 0 0 0 1 2 1 0 0 0
0 0 0 0 0 0 0 0 0 0 0 0 0 0 0 0 0 0 0 0 0 0 0 0 0 0 0 0 0 0 0 0 0 1 1 0 0 0 1 1 0 0 0
0 0 0 0 0 0 0 0 0 0 0 0 0 0 0 0 0 0 0 0 0 0 0 0 0 0 0 0 0 0 0 0 0 0 0 0 0 0 0 0 0 0 0
0 0 0 0 0 0 0 0 0 0 0 0 0 0 0 0 0 0 0 0 0 0 0 0 0 0 0 0 0 0 0 0 0 0 0 0 0 0 0 0 0 0 0
0 0 0 0 0 0 0 0 0 0 0 0 0 0 0 0 0 0 0 0 0 0 0 0 0 0 0 0 0 0 0 0 0 0 0 0 0 0 0 1 1 1 1
0 0 0 0 0 0 0 0 0 0 0 0 0 0 0 0 0 0 0 0 0 0 0 0 0 0 0 0 0 0 0 0 0 0 0 0 0 0 0 1 2 2 1
0 0 0 0 0 0 0 0 0 0 0 0 0 0 0 0 0 0 0 0 0 0 0 0 0 0 0 0 0 0 0 0 0 0 0 0 0 0 0 1 2 2 1
0 0 0 0 0 0 0 0 0 0 0 0 0 0 0 0 0 0 0 0 0 0 0 0 0 0 0 0 0 0 0 0 0 0 0 0 0 0 0 1 1 1 0
0 0 0 0 0 0 0 0 0 0 0 0 0 0 0 0 0 0 0 1 0 0 0 0 0 0 0 0 0 0 0 0 0 0 0 0 0 0 0 0 0 0 0
0 0 0 0 0 0 0 0 0 0 0 0 0 0 0 0 0 0 0 0 0 0 0 0 0 0 0 0 0 0 0 0 0 0 0 0 0 0 0 0 0 0 0
0 0 0 0 0 0 0 0 0 0 0 0 0 0 0 0 0 0 0 0 0 0 0 0 0 0 0 0 0 0 0 0 0 0 0 0 0 0 0 0 0 0 0
0 0 0 0 0 0 0 0 0 0 0 0 0 0 0 0 0 0 0 0 0 0 0 0 0 0 0 0 0 0 0 0 0 0 0 0 0 0 0 0 0 0 0
0 0 0 0 0 0 0 0 0 0 0 0 0 0 0 0 0 0 0 0 0 0 0 0 0 0 0 0 0 0 0 0 0 0 0 0 0 0 0 0 0 0 0
0 0 0 0 0 0 0 0 0 0 0 0 0 0 0 0 0 0 0 0 0 0 0 0 0 0 0 0 0 0 0 0 0 0 0 0 0 0 0 0 0 0 0
0 0 0 0 0 0 0 0 0 0 0 0 0 0 0 0 0 0 0 0 0 0 0 0 0 0 0 0 0 0 0 0 0 0 0 0 0 0 0 0 0 0 0
0 0 0 0 0 0 0 0 0 0 0 0 0 0 0 0 0 0 0 0 0 0 0 0 0 0 0 0 0 0 0 0 0 0 0 0 0 0 0 0 0 0 0
0 0 0 0 0 0 0 0 0 0 0 0 0 0 0 0 0 0 0 0 0 0 0 0 0 0 0 0 0 0 0 0 0 0 0 0 0 0 0 0 0 0 0
0 0 0 0 0 0 0 0 0 0 0 0 0 0 0 0 0 0 0 0 0 0 0 0 0 0 0 0 0 0 0 0 0 0 0 0 0 0 0 0 0 0 0
0 0 0 0 0 0 0 0 0 0 0 0 0 0 0 0 0 0 0 0 0 0 0 0 0 0 0 0 0 0 0 0 0 0 0 0 0 0 0 0 0 0 0
0 0 0 0 0 0 0 0 0 0 0 0 0 0 0 0 0 0 0 0 0 0 0 0 0 0 0 0 0 0 0 0 0 0 0 0 0 0 0 0 0 0 0
0 0 0 0 0 0 0 0 0 0 0 0 0 0 0 0 0 0 0 0 0 0 0 0 0 0 0 0 0 0 0 0 0 0 0 0 0 0 0 0 0 0 0
0 0 0 0 0 0 0 0 0 0 0 0 0 0 0 0 0 0 0 0 0 0 0 0 0 0 0 0 0 0 0 0 0 0 0 0 0 0 0 0 0 0 0
Wind_Speed
8 10 12 12 13 12 12 12 12 12 12 12 12 11 11 11 11 10 10 10 9 9 9 9 8 8 8 8 8 8 7 7 6 5 5 4 4 4 5 5 6 4 6
12 12 13 13 13 13 13 12 12 12 12 12 12 11 11 11 11 10 10 9 9 9 9 9 8 8 7 8 8 8 7 7 6 5 4 4 3 4 5 6 6 4 6
13 12 12 13 14 13 13 13 13 12 12 12 12 11 11 10 10 10 9 9 9 9 9 8 8 7 7 7 7 7 7 7 7 7 6 2 2 5 6 6 6 6 6
13 12 12 13 14 13 13 13 12 12 12 11 11 11 10 10 10 9 9 9 9 9 8 8 7 7 6 6 6 6 7 8 9 8 4 3 4 7 7 6 6 6 6
14 12 12 14 13 13 13 12 12 12 11 11 10 10 10 9 9 9 9 8 8 8 8 7 7 6 6 5 5 6 6 8 9 7 3 4 4 7 7 6 6 6 6
14 12 11 13 13 12 12 12 11 11 10 10 10 10 9 8 8 8 8 8 8 8 7 7 6 6 6 5 5 5 6 8 7 3 2 3 4 6 6 6 6 6 6
13 12 12 13 13 12 11 11 10 10 10 9 9 8 7 7 7 7 8 8 8 8 7 7 7 6 5 5 5 5 6 8 4 2 2 3 5 7 6 6 6 5 6
12 12 11 13 12 11 10 9 9 8 8 7 7 6 5 4 5 6 7 7 8 8 7 7 6 6 5 4 4 5 6 7 4 3 3 4 7 8 7 6 6 6 6
10 10 10 10 10 11 10 8 7 6 6 5 4 2 2 1 2 5 6 7 7 7 6 6 5 5 4 4 4 5 6 6 4 2 4 4 7 8 8 6 6 6 6
8 8 8 8 9 8 7 8 7 5 4 3 2 2 2 3 2 3 6 5 4 5 5 5 4 4 5 5 5 6 6 5 1 1 3 5 9 8 8 8 7 7 6
6 5 6 6 6 5 6 7 7 6 4 3 4 4 4 0 2 3 6 3 1 2 4 5 5 6 6 6 8 7 5 2 1 2 4 8 9 8 7 8 8 8 7
6 6 6 6 6 5 4 4 2 3 2 1 1 1 1 2 2 4 4 3 3 4 5 7 8 7 6 3 5 6 2 1 1 3 5 9 8 7 6 7 7 8 7
6 5 5 6 5 5 3 3 2 1 1 2 2 3 3 3 2 2 1 1 2 1 2 3 4 2 1 0 1 1 0 2 2 4 5 9 8 7 7 7 7 7 8
6 5 4 5 5 6 4 3 2 2 2 2 3 3 3 2 2 2 2 2 1 1 2 3 2 3 4 3 3 3 3 2 2 3 4 8 8 7 7 6 6 7 7
6 4 4 4 6 6 3 2 4 3 2 2 2 3 4 3 3 2 2 2 3 2 2 3 3 4 4 4 3 4 4 3 3 4 4 7 7 6 6 6 6 7 7
6 6 4 5 4 4 3 3 3 2 2 3 3 3 4 3 3 3 3 3 3 3 3 3 4 3 2 2 3 4 4 4 3 4 4 4 6 6 5 6 6 7 7
7 7 5 5 5 5 5 4 3 3 4 3 3 4 4 4 4 4 3 3 3 4 4 4 5 4 3 3 3 3 3 4 3 4 3 3 3 4 5 6 7 7 7
7 7 4 5 6 5 4 4 3 4 4 3 4 4 6 5 5 4 3 3 4 4 4 3 4 4 4 3 3 3 3 3 4 3 2 3 3 3 4 5 6 7 7
8 7 5 5 5 5 4 3 4 4 4 4 4 4 5 6 6 4 3 4 5 4 4 5 4 3 3 3 1 2 3 3 3 4 4 4 3 3 3 4 6 7 7
7 8 7 5 5 4 2 3 3 4 4 4 4 4 5 5 6 4 3 5 5 4 4 4 5 4 3 3 3 3 3 3 3 4 4 4 4 4 3 4 3 4 8
6 8 6 5 5 4 2 3 3 2 3 3 3 4 5 5 5 4 4 4 4 4 4 5 4 5 4 3 3 3 3 4 4 4 4 4 4 4 4 4 3 3 4
6 6 7 5 5 5 2 2 2 2 3 3 3 3 5 5 6 5 5 3 4 4 5 5 4 4 3 4 3 2 3 4 4 4 4 4 4 4 4 6 5 5 4
6 5 6 6 6 5 4 3 3 2 2 3 3 3 4 5 5 5 5 4 4 4 4 5 5 5 4 4 4 3 2 1 2 3 4 4 4 4 4 4 6 6 6
6 5 6 5 6 5 4 3 3 3 2 3 2 2 3 4 4 4 4 5 5 4 4 5 5 4 4 4 3 4 3 1 1 2 3 4 4 5 5 5 6 6 6
6 5 5 6 6 5 5 4 2 3 3 2 2 2 3 3 3 4 4 5 5 4 4 5 5 5 4 4 3 3 4 4 4 2 2 3 3 3 4 4 4 4 5
6 5 6 6 5 4 4 4 3 4 4 3 3 2 2 2 2 3 3 4 4 4 4 4 4 4 4 5 4 4 4 3 3 3 2 2 2 2 3 3 4 3 4
Wind_Direction
95 94 90 88 85 84 83 81 79 78 75 72 69 67 64 61 58 56 55 52 49 45 42 40 36 36 36 33 30 27 24 18 14 12 14 21 30 42 41 30 30 39 43
105 99 92 89 87 85 84 82 79 76 74 71 68 65 62 59 56 54 53 50 48 45 41 38 35 34 35 31 25 20 14 6 359 350 345 350 19 53 51 37 36 39 36
103 102 94 90 89 87 85 83 80 77 73 69 66 63 59 57 55 51 49 48 47 43 39 36 33 30 30 29 23 16 6 355 344 334 319 299 71 69 60 42 42 39 32
96 93 93 93 91 88 85 83 80 77 72 68 64 60 57 54 51 48 46 46 43 40 38 35 30 27 26 23 16 10 360 348 337 334 341 23 50 71 59 44 40 36 30
93 94 96 95 93 90 87 83 79 75 71 67 63 59 55 52 49 46 45 43 39 36 35 31 24 23 25 18 6 360 353 340 336 335 359 37 54 64 55 43 36 33 29
101 101 101 99 96 93 89 84 79 74 69 64 60 56 53 50 49 48 44 40 37 35 34 30 23 22 21 15 5 355 344 336 332 334 31 48 64 62 53 43 36 32 30
108 111 110 107 103 97 91 84 78 74 69 65 60 56 53 51 49 49 45 40 34 31 31 27 21 18 15 11 1 346 337 332 315 338 51 64 68 61 47 43 36 36 37
116 118 120 120 116 109 100 91 82 79 74 70 65 58 54 54 57 57 49 40 34 29 27 22 15 13 11 360 345 336 334 328 345 13 61 71 68 59 48 45 39 40 39
117 126 134 136 129 121 114 108 100 92 86 84 79 60 51 41 70 75 65 45 33 27 21 15 4 355 347 332 318 315 322 326 333 356 61 72 66 58 52 48 46 44 42
122 128 133 135 137 140 137 134 132 127 127 135 171 246 262 239 200 116 83 59 32 18 4 352 337 324 310 296 288 292 301 310 327 35 68 73 67 58 49 48 51 48 44
112 121 119 122 123 128 136 140 158 161 175 192 214 244 270 174 157 136 87 98 9 330 316 305 300 291 282 272 262 269 286 259 137 84 72 78 71 60 49 49 48 46 44
128 123 121 123 126 117 96 121 141 121 125 116 44 52 347 42 33 66 121 200 250 275 291 277 279 276 262 250 237 240 266 272 96 91 85 83 74 63 53 50 49 48 46
117 112 121 124 116 111 106 99 80 83 93 55 16 51 34 20 20 68 154 218 257 279 307 296 284 274 285 175 303 215 29 31 55 81 90 85 77 67 57 52 54 52 49
109 105 99 106 106 95 89 102 93 69 72 56 9 44 53 20 11 15 47 0 6 10 340 335 339 9 10 24 13 20 42 51 81 96 99 90 81 71 61 54 57 54 50
118 114 93 84 88 94 88 78 88 64 48 75 2 34 55 35 15 1 48 11 8 4 359 352 11 20 21 20 15 31 28 45 73 91 101 99 91 78 67 59 57 55 51
128 110 95 91 87 100 104 85 79 98 82 55 18 39 49 40 30 9 32 18 7 4 7 9 19 17 19 34 26 36 34 29 61 100 115 110 99 88 72 65 63 62 56
122 110 99 92 73 61 58 62 78 63 66 60 29 21 46 44 40 25 19 13 8 7 9 18 17 11 22 34 36 41 48 25 37 80 107 122 114 94 81 74 69 66 64
117 109 107 95 88 75 63 50 61 55 51 52 43 18 25 34 52 35 15 10 17 14 9 21 24 12 17 23 27 32 51 38 32 49 79 92 104 111 96 84 73 70 70
119 122 115 94 96 90 92 82 65 69 55 54 48 25 16 20 33 40 18 16 22 20 13 22 24 13 10 12 31 56 50 50 30 41 55 68 74 88 105 95 80 68 67
126 122 112 108 105 106 84 80 66 53 57 57 57 36 19 21 23 27 23 33 29 25 13 21 16 10 4 5 31 50 54 53 45 41 45 57 59 65 74 86 84 72 66
125 121 123 125 108 92 66 70 74 69 67 60 59 40 29 30 21 26 25 32 37 37 22 23 14 8 9 7 29 26 37 50 48 52 46 52 51 48 55 62 63 67 61
121 123 128 117 105 97 83 91 96 87 86 85 60 43 40 37 20 28 30 28 37 36 25 27 21 14 7 20 32 38 23 16 12 38 44 50 44 40 45 54 51 58 63
128 125 116 117 112 105 99 77 72 69 68 76 73 53 45 47 34 21 20 27 38 46 31 29 24 27 15 12 33 51 64 26 342 4 30 44 34 36 41 51 50 50 61
130 124 123 116 108 105 101 85 93 94 88 82 84 83 75 59 49 22 21 30 43 43 37 32 30 18 29 18 14 26 47 82 68 13 5 25 34 40 40 49 47 44 53
129 125 117 110 105 106 104 92 71 71 79 75 79 76 82 67 55 33 32 34 41 42 42 41 33 29 28 25 26 19 15 19 34 67 24 5 17 27 44 52 52 46 45
124 121 113 112 107 108 112 118 105 90 87 79 76 64 82 79 55 42 44 41 42 42 38 32 42 44 36 30 29 31 34 33 16 29 35 21 24 13 37 44 46 46 47